Showing default

TJS-17, 63524

Orbit data source: Space-Track

TJS-17, 63524 is a payload satellite owned by PLA SSF (CN) in GEO that was launched on Thu, 10 Apr 2025 UTC via a CHANG ZHENG 3B launch vehicle from the Xichang Space Center, China (XSC). Payload-class satellites include a variety of spacecraft equipped with specific instruments for various scientific and technological missions. These include communications satellites like Starlink; space stations such as the ISS; scientific satellites like the Hubble; Earth observation satellites from companies like Planet Labs, Umbra, and HawkEye 360; GPS; miniature CubeSats for education and research; and military/defense satellites.

Not visible in the next 10 days
Identifier
63524, 2025-073A
Orbit
GEO
Country
Flag of CNCN / PRC
Related business
Manufacturer
SISE
Mission
Operational Defense Sigint
Bus & Motor
FY-4?, LAE
Mass
~5,000 kg wet, ~2,500 kg dry
Launch date (UTC)
2025-04-10 (6 months ago)
Launch vehicle
CHANG ZHENG 3B
Launch site
Xichang Space Center, China (XSC)
Object type
Payload
Rocket body
Debris
Shape & HBR
Box + 2 Pan, 22.5 m
Radar Cross Section
34.063 m², Large (>1 m²)

Expand to show TLE details & history
Last TLE update: 5 hours ago

TLE from 5 hours ago
0 TJS-17
1 63524U 25073A   25295.22738861 -.00000060  00000-0  00000+0 0  9993
2 63524   0.4453  83.3960 0002305 181.3738  12.5593  1.00274070  1904
Epoch: 2025-10-22T05:27Z
TLE epoch observation values (Epoch: 2025-10-22T05:27:26.375Z)
Latitude
-0.08961°
Longitude
164.53871°
Altitude
35,775.999 km
Speed
3.075 km/s
True Right ascension
18h 29m 12s
True Declination
0° 05' 22"
Sunlit
Object was in daylight at epoch
Visualization orbit readout
Latitude
Unknown
Longitude
Unknown
Altitude
Unknown
Speed
Unknown
Apparent Right ascension
Unknown
Apparent Declination
Unknown
Sunlit
N/A
Visualization observer readout
Local Sidereal Time
05:18:31
Azimuth
Unknown
Elevation
Unknown
Doppler factor
Unknown
Orbital elements
Apogee altitude
35,796.744 km
Perigee altitude
35,777.306 km
Semi-major axis
42,165.162 km
Eccentricity
0.00023
Inclination
0.4453°
RAAN
83.396°
Arg. of periapsis
181.3738°
True anomaly
12.56505°
Mean anomaly
12.5593°
Eccentric anomaly
12.56217°
Mean motion
0.25068 °/min
Orbital period
1,436.12 mins
BSTAR
0
Loading maneuver chart data...
Computing Atmospheric mass density...
Loading historical data...
Loading historical data...
Loading historical data...
Loading historical data...
Loading historical data...
Loading historical data...
Loading historical data...
Other satellites on launch #73 in the year 2025 (2025-04-10 UTC)

Documentation

Showing up to 5 results
|